"Pseudo-MPEC" for CELXZH2

Created 2026 May 16 9:35:04 UT using Find_Orb

Click here for an explanation of pseudo-MPECs

 
 Astrometry: 
     CELXZH2*1C2026 05 11.33427914 48 57.884+23 56 42.72   ~5B8o 22.51GVNEOCPG96
     CELXZH2 1C2026 05 11.33946914 48 57.452+23 56 44.99   ~5B8o 22.49GVNEOCPG96
     CELXZH2 1C2026 05 11.34466214 48 57.042+23 56 47.18   ~5B8o 22.10GVNEOCPG96

Station data:
(G96) Mt. Lemmon Survey  (N32.442729 W110.788720)  US/Arizona.  Observer E.
   J. Christensen. Measurers T. Beuden, V. F. Carvajal, D. Fay, J. B.
   Fazekas, D. C. Fuls, A. R. Gibbs, A. D. Grauer, H. Gröller, J. K. Hogan,
   R. A. Kowalski, S. M. Larson, G. J. Leonard, D. Rankin, R. L. Seaman, F.
   C. Shelly, K. W. Wierzchoś. 1.5-m reflector + 10K CCD.

Orbital elements:  CELXZH2
   Perihelion 2025 Nov 30.915701 +/- 301 TT = 21:58:36.6 (JD 2461010.415701)
Epoch 2026 May 11.0 TT = JDT 2461171.5   Earth MOID: 0.2114   Ma: 0.0608
M  13.386874891 +/- 80              (J2000 ecliptic)             AutoNEOCP
n   0.083104778 +/- 0.154           Peri.  270.367955 +/- 50
a   5.200583251 +/- 6.42            Node   196.382924 +/- 49
e   0.86184531 +/- 0.253            Incl.   48.877831 +/- 45
P  11.85982                H 18.73  G  0.15   U 11.5  SR
q 0.718484915 +/- 1.01    Q 9.682681588 +/- 28.6
From 3 observations 2026 May 11 (15.0 min); mean residual 0".05
Residuals in arcseconds: 
260511 G96  .05+  .01-    260511 G96  .10-  .03+    260511 G96  .05+  .01-    

Ephemerides (geocentric):
Date (UTC) HH   RA             Dec           delta  r     elong  mag " sig PA
---- --------  ------------   ------------  ------ ------ -----  --- --------
2026 05 16 10  14 42 36.832   +24 26 31.00  1.7217 2.5385 134.9 22.8 1454  85
2026 05 16 11  14 42 33.888   +24 26 42.37  1.7223 2.5389 134.9 22.8 1466  85
2026 05 16 12  14 42 30.946   +24 26 53.68  1.7230 2.5394 134.9 22.8 1478  85
2026 05 16 13  14 42 28.008   +24 27 04.94  1.7237 2.5398 134.8 22.8 1490  85
2026 05 16 14  14 42 25.073   +24 27 16.15  1.7244 2.5403 134.8 22.8 1503  84
2026 05 16 15  14 42 22.141   +24 27 27.31  1.7251 2.5407 134.8 22.8 1515  84
2026 05 16 16  14 42 19.212   +24 27 38.42  1.7258 2.5412 134.7 22.8 1527  84
2026 05 16 17  14 42 16.285   +24 27 49.48  1.7265 2.5416 134.7 22.8 1539  84
2026 05 16 18  14 42 13.362   +24 28 00.49  1.7272 2.5421 134.7 22.8 1551  84
2026 05 16 19  14 42 10.442   +24 28 11.45  1.7279 2.5425 134.7 22.8 1563  84
2026 05 16 20  14 42 07.526   +24 28 22.35  1.7286 2.5430 134.6 22.8 1575  84
2026 05 16 21  14 42 04.612   +24 28 33.21  1.7292 2.5434 134.6 22.8 1588  84
2026 05 16 22  14 42 01.701   +24 28 44.01  1.7299 2.5439 134.6 22.8 1600  84
2026 05 16 23  14 41 58.793   +24 28 54.77  1.7306 2.5443 134.6 22.8 1612  84
2026 05 17 00  14 41 55.888   +24 29 05.47  1.7313 2.5447 134.5 22.8 1624  84
2026 05 17 01  14 41 52.987   +24 29 16.12  1.7320 2.5452 134.5 22.8 1637  83
2026 05 17 02  14 41 50.088   +24 29 26.73  1.7327 2.5456 134.5 22.8 1649  83
2026 05 17 03  14 41 47.193   +24 29 37.28  1.7334 2.5461 134.5 22.8 1661  83
2026 05 17 04  14 41 44.300   +24 29 47.78  1.7341 2.5465 134.4 22.8 1673  83
2026 05 17 05  14 41 41.411   +24 29 58.23  1.7348 2.5470 134.4 22.8 1686  83
2026 05 17 06  14 41 38.525   +24 30 08.63  1.7355 2.5474 134.4 22.8 1698  83
2026 05 17 07  14 41 35.641   +24 30 18.98  1.7362 2.5479 134.4 22.8 1710  83
2026 05 17 08  14 41 32.761   +24 30 29.29  1.7369 2.5483 134.3 22.8 1723  83
2026 05 17 09  14 41 29.884   +24 30 39.54  1.7376 2.5488 134.3 22.9 1735  83
2026 05 17 10  14 41 27.010   +24 30 49.74  1.7383 2.5492 134.3 22.9 1748  83
2026 05 17 11  14 41 24.139   +24 30 59.89  1.7390 2.5497 134.2 22.9 1760  83
2026 05 17 12  14 41 21.271   +24 31 09.99  1.7397 2.5501 134.2 22.9 1773  83
2026 05 17 13  14 41 18.407   +24 31 20.04  1.7404 2.5505 134.2 22.9 1785  82
2026 05 17 14  14 41 15.545   +24 31 30.04  1.7410 2.5510 134.2 22.9 1797  82
2026 05 17 15  14 41 12.686   +24 31 40.00  1.7417 2.5514 134.1 22.9 1810  82
2026 05 17 16  14 41 09.831   +24 31 49.90  1.7424 2.5519 134.1 22.9 1822  82
2026 05 17 17  14 41 06.978   +24 31 59.75  1.7431 2.5523 134.1 22.9 1835  82
2026 05 17 18  14 41 04.129   +24 32 09.56  1.7438 2.5528 134.1 22.9 1848  82
2026 05 17 19  14 41 01.283   +24 32 19.31  1.7445 2.5532 134.0 22.9 1860  82
2026 05 17 20  14 40 58.440   +24 32 29.01  1.7452 2.5537 134.0 22.9 1873  82
2026 05 17 21  14 40 55.600   +24 32 38.67  1.7459 2.5541 134.0 22.9 1885  82
2026 05 17 22  14 40 52.763   +24 32 48.27  1.7466 2.5545 134.0 22.9 1898  82
2026 05 17 23  14 40 49.929   +24 32 57.83  1.7473 2.5550 133.9 22.9 1911  82
2026 05 18 00  14 40 47.098   +24 33 07.34  1.7480 2.5554 133.9 22.9 1923  82
2026 05 18 01  14 40 44.271   +24 33 16.80  1.7487 2.5559 133.9 22.9 1936  82
2026 05 18 02  14 40 41.446   +24 33 26.21  1.7494 2.5563 133.8 22.9 1949  81
2026 05 18 03  14 40 38.625   +24 33 35.57  1.7501 2.5568 133.8 22.9 1961  81
2026 05 18 04  14 40 35.807   +24 33 44.88  1.7508 2.5572 133.8 22.9 1974  81
2026 05 18 05  14 40 32.991   +24 33 54.14  1.7515 2.5577 133.8 22.9 1987  81
2026 05 18 06  14 40 30.179   +24 34 03.35  1.7522 2.5581 133.7 22.9 2000  81
2026 05 18 07  14 40 27.371   +24 34 12.52  1.7530 2.5586 133.7 22.9 2013  81
2026 05 18 08  14 40 24.565   +24 34 21.64  1.7537 2.5590 133.7 22.9 2025  81
2026 05 18 09  14 40 21.762   +24 34 30.70  1.7544 2.5594 133.7 22.9 2038  81